DB5ZQ Weather Reports


time (UTC)temp
C
wind
direction
speed
KPH
gust
KPH
rain 1hr
cm
rain 24hr
cm
rain mn
cm
humidity
%
barometer
mb
20260904182249 27 61 4.8 11.3 0.00 0.00 0.00 48 1008.8
20260904181748 27 45 6.4 22.5 0.00 0.00 0.00 47 1008.6
20260904181248 27 56 3.2 25.7 0.00 0.00 0.00 47 1008.5
20260904180748 27 32 4.8 20.9 0.00 0.00 0.00 47 1008.4
20260904180247 27 98 6.4 12.9 0.00 0.00 0.00 47 1008.4
20260904175747 27 250 3.2 20.9 0.00 0.00 0.00 47 1008.4
20260904175247 27 137 3.2 19.3 0.00 0.00 0.00 46 1008.3
20260904174747 28 120 9.7 22.5 0.00 0.00 0.00 46 1008.3
20260904174246 28 47 3.2 9.7 0.00 0.00 0.00 46 1008.3
20260904173746 28 203 0.0 11.3 0.00 0.00 0.00 45 1008.3
20260904173246 28 8 0.0 9.7 0.00 0.00 0.00 45 1008.2
20260904172745 28 78 3.2 14.5 0.00 0.00 0.00 44 1008.2
20260904172245 28 136 4.8 14.5 0.00 0.00 0.00 44 1008.2
20260904171745 28 59 1.6 14.5 0.00 0.00 0.00 43 1008.1
20260904171245 29 67 6.4 14.5 0.00 0.00 0.00 43 1008.2
20260904170744 29 94 9.7 17.7 0.00 0.00 0.00 42 1008.2
20260904170244 29 90 4.8 20.9 0.00 0.00 0.00 41 1008.2
20260904165744 29 25 8.0 17.7 0.00 0.00 0.00 42 1008.2
20260904165243 29 52 16.1 19.3 0.00 0.00 0.00 41 1008.1
20260904164743 30 19 3.2 11.3 0.00 0.00 0.00 41 1008.1
20260904164243 30 71 4.8 17.7 0.00 0.00 0.00 41 1008.1
20260904163743 30 60 4.8 17.7 0.00 0.00 0.00 40 1008.2
20260904163242 30 289 1.6 24.1 0.00 0.00 0.00 39 1008.1
20260904162742 30 105 14.5 19.3 0.00 0.00 0.00 39 1008.0
20260904162242 31 70 11.3 20.9 0.00 0.00 0.00 38 1008.0
20260904161741 31 56 11.3 25.7 0.00 0.00 0.00 36 1008.1
20260904161241 32 70 6.4 14.5 0.00 0.00 0.00 35 1008.1
20260904160741 31 54 0.0 11.3 0.00 0.00 0.00 36 1008.1
20260904160241 31 104 4.8 19.3 0.00 0.00 0.00 35 1008.0
20260904155740 32 150 1.6 20.9 0.00 0.00 0.00 34 1008.0
20260904155240 32 36 3.2 17.7 0.00 0.00 0.00 34 1008.0
20260904154740 32 18 0.0 20.9 0.00 0.00 0.00 35 1008.1
20260904154239 32 60 3.2 19.3 0.00 0.00 0.00 34 1008.0
20260904153739 31 80 8.0 19.3 0.00 0.00 0.00 35 1008.1
20260904153239 31 50 14.5 17.7 0.00 0.00 0.00 36 1008.2
20260904152739 31 102 8.0 19.3 0.00 0.00 0.00 37 1008.1
20260904152238 30 46 1.6 17.7 0.00 0.00 0.00 38 1008.1
20260904151738 30 74 6.4 12.9 0.00 0.00 0.00 38 1008.1
20260904151238 30 23 6.4 19.3 0.00 0.00 0.00 38 1008.1
20260904150737 31 47 9.7 14.5 0.00 0.00 0.00 37 1008.1
20260904150237 31 302 3.2 17.7 0.00 0.00 0.00 36 1008.0
20260904145737 32 63 6.4 16.1 0.00 0.00 0.00 36 1008.0
20260904145237 32 129 9.7 12.9 0.00 0.00 0.00 35 1008.0
20260904144736 32 40 4.8 17.7 0.00 0.00 0.00 34 1007.9
20260904144236 33 135 6.4 14.5 0.00 0.00 0.00 32 1007.9
20260904143736 33 316 0.0 25.7 0.00 0.00 0.00 32 1007.9
20260904143235 33 90 11.3 11.3 0.00 0.00 0.00 32 1007.8
20260904142735 32 12 3.2 16.1 0.00 0.00 0.00 34 1007.8
20260904142235 32 4 14.5 17.7 0.00 0.00 0.00 34 1007.9
20260904141735 32 106 3.2 16.1 0.00 0.00 0.00 36 1007.8
20260904141234 31 232 1.6 20.9 0.00 0.00 0.00 36 1007.8
20260904140734 31 18 4.8 24.1 0.00 0.00 0.00 37 1007.9
20260904140234 31 334 12.9 20.9 0.00 0.00 0.00 36 1007.8
20260904135733 31 147 4.8 20.9 0.00 0.00 0.00 38 1007.9
20260904135233 31 43 6.4 19.3 0.00 0.00 0.00 38 1008.0
20260904134733 31 80 11.3 29.0 0.00 0.00 0.00 39 1008.1
20260904134233 31 50 9.7 20.9 0.00 0.00 0.00 38 1008.2
20260904133732 31 63 4.8 14.5 0.00 0.00 0.00 38 1008.1
20260904133232 31 139 1.6 22.5 0.00 0.00 0.00 39 1008.1
20260904132732 31 99 3.2 19.3 0.00 0.00 0.00 39 1008.2
20260904132232 31 319 3.2 24.1 0.00 0.00 0.00 39 1008.3
20260904131731 31 352 8.0 24.1 0.00 0.00 0.00 39 1008.3
20260904131231 31 305 8.0 17.7 0.00 0.00 0.00 40 1008.3
20260904130731 31 70 4.8 14.5 0.00 0.00 0.00 41 1008.4
20260904130230 30 106 11.3 17.7 0.00 0.00 0.00 42 1008.5
20260904125730 30 295 4.8 17.7 0.00 0.00 0.00 41 1008.8
20260904125230 30 47 4.8 19.3 0.00 0.00 0.00 43 1008.9
20260904124730 29 46 11.3 16.1 0.00 0.00 0.00 43 1008.9
20260904124229 29 104 6.4 16.1 0.00 0.00 0.00 45 1009.0
20260904123729 28 98 8.0 19.3 0.00 0.00 0.00 45 1009.1
20260904123229 29 351 9.7 24.1 0.00 0.00 0.00 44 1008.9
20260904122728 30 333 12.9 16.1 0.00 0.00 0.00 44 1009.1
20260904122228 28 16 0.0 11.3 0.00 0.00 0.00 46 1009.1
20260904121728 28 282 6.4 16.1 0.00 0.00 0.00 46 1009.2
20260904121228 28 306 3.2 14.5 0.00 0.00 0.00 48 1009.3
20260904120727 27 56 6.4 19.3 0.00 0.00 0.00 49 1009.4
20260904120227 27 49 4.8 9.7 0.00 0.00 0.00 50 1009.6
20260904115727 27 73 6.4 19.3 0.00 0.00 0.00 50 1009.6
20260904115226 27 298 14.5 17.7 0.00 0.00 0.00 50 1009.7
20260904114726 27 50 4.8 19.3 0.00 0.00 0.00 50 1009.8
20260904114226 27 112 8.0 22.5 0.00 0.00 0.00 49 1009.8
20260904113726 27 261 4.8 24.1 0.00 0.00 0.00 49 1009.8
20260904113225 27 50 6.4 27.4 0.00 0.00 0.00 48 1010.0
20260904112725 28 33 6.4 16.1 0.00 0.00 0.00 47 1009.9
20260904112225 28 326 1.6 22.5 0.00 0.00 0.00 46 1010.0
20260904111724 28 316 12.9 12.9 0.00 0.00 0.00 46 1010.0
20260904111224 28 118 3.2 19.3 0.00 0.00 0.00 47 1010.1
20260904110724 28 75 6.4 29.0 0.00 0.00 0.00 47 1010.1
20260904110224 27 329 6.4 25.7 0.00 0.00 0.00 50 1010.2
20260904105723 27 284 3.2 17.7 0.00 0.00 0.00 51 1010.1
20260904105223 27 323 1.6 17.7 0.00 0.00 0.00 51 1010.3
20260904104723 26 338 8.0 22.5 0.00 0.00 0.00 52 1010.4
20260904104222 27 14 3.2 17.7 0.00 0.00 0.00 53 1010.4
20260904103722 26 61 0.0 17.7 0.00 0.00 0.00 54 1010.5
20260904103222 27 326 1.6 14.5 0.00 0.00 0.00 53 1010.5
20260904102722 26 300 3.2 12.9 0.00 0.00 0.00 54 1010.6
20260904102221 26 36 3.2 24.1 0.00 0.00 0.00 55 1010.5
20260904101721 26 317 3.2 14.5 0.00 0.00 0.00 55 1010.7
20260904101221 26 341 4.8 17.7 0.00 0.00 0.00 55 1010.7
20260904100720 26 345 11.3 19.3 0.00 0.00 0.00 55 1010.8
20260904100220 26 348 11.3 19.3 0.00 0.00 0.00 55 1010.7
20260904095720 26 39 9.7 25.7 0.00 0.00 0.00 55 1010.6
20260904095220 26 8 1.6 22.5 0.00 0.00 0.00 55 1010.7
20260904094719 26 0 1.6 22.5 0.00 0.00 0.00 55 1010.7
20260904094219 26 343 3.2 22.5 0.00 0.00 0.00 56 1010.7
20260904093719 26 298 6.4 17.7 0.00 0.00 0.00 57 1010.6
20260904093218 26 80 3.2 19.3 0.00 0.00 0.00 57 1010.8
20260904092718 25 94 4.8 14.5 0.00 0.00 0.00 59 1010.8
20260904092218 25 16 4.8 17.7 0.00 0.00 0.00 59 1011.0
20260904091718 25 71 6.4 16.1 0.00 0.00 0.00 60 1011.1
20260904091217 25 341 14.5 17.7 0.00 0.00 0.00 60 1011.2
20260904090717 25 240 1.6 9.7 0.00 0.00 0.00 62 1011.4
20260904090217 24 12 0.0 14.5 0.00 0.00 0.00 63 1011.5
20260904085717 24 33 8.0 17.7 0.00 0.00 0.00 63 1011.6
20260904085216 23 5 4.8 14.5 0.00 0.00 0.00 64 1011.8
20260904084716 23 43 1.6 12.9 0.00 0.00 0.00 65 1011.8
20260904084216 23 336 4.8 14.5 0.00 0.00 0.00 65 1011.8
20260904083715 23 22 4.8 9.7 0.00 0.00 0.00 67 1012.0
20260904083215 23 315 3.2 12.9 0.00 0.00 0.00 67 1012.0
20260904082715 23 247 0.0 14.5 0.00 0.00 0.00 67 1012.0
20260904082214 22 340 8.0 16.1 0.00 0.00 0.00 67 1012.0
20260904081714 22 352 4.8 14.5 0.00 0.00 0.00 67 1012.0
20260904081214 22 307 6.4 14.5 0.00 0.00 0.00 68 1012.0
20260904080714 22 352 1.6 14.5 0.00 0.00 0.00 68 1012.0
20260904080213 22 286 6.4 16.1 0.00 0.00 0.00 69 1012.0
20260904075713 22 82 4.8 16.1 0.00 0.00 0.00 69 1012.0
20260904075213 22 288 3.2 16.1 0.00 0.00 0.00 70 1012.1
20260904074712 22 358 0.0 9.7 0.00 0.00 0.00 71 1012.2
20260904074212 22 85 6.4 11.3 0.00 0.00 0.00 72 1012.2
20260904073712 22 104 4.8 12.9 0.00 0.00 0.00 72 1012.4
20260904073212 22 118 8.0 14.5 0.00 0.00 0.00 73 1012.4
20260904072711 21 77 1.6 8.0 0.00 0.00 0.00 74 1012.4
20260904072211 21 337 1.6 8.0 0.00 0.00 0.00 75 1012.4
20260904071711 21 341 8.0 9.7 0.00 0.00 0.00 75 1012.5
20260904071211 21 307 8.0 8.0 0.00 0.00 0.00 75 1012.6
20260904070710 21 19 0.0 12.9 0.00 0.00 0.00 75 1012.7
20260904070210 21 29 0.0 6.4 0.00 0.00 0.00 76 1012.7
20260904065710 21 111 0.0 11.3 0.00 0.00 0.00 77 1012.8
20260904065209 21 132 3.2 11.3 0.00 0.00 0.00 78 1012.9
20260904064709 20 45 0.0 6.4 0.00 0.00 0.00 78 1013.0
20260904064209 20 94 0.0 6.4 0.00 0.00 0.00 79 1013.1
20260904063709 20 63 0.0 8.0 0.00 0.00 0.00 79 1013.0
20260904063208 20 68 0.0 11.3 0.00 0.00 0.00 79 1013.0
20260904062708 20 12 0.0 9.7 0.00 0.00 0.00 79 1013.1
20260904062208 20 54 0.0 8.0 0.00 0.00 0.00 79 1013.0
20260904061707 20 37 0.0 8.0 0.00 0.00 0.00 79 1013.1
20260904061207 20 85 3.2 8.0 0.00 0.00 0.00 80 1013.1
20260904060707 20 67 0.0 8.0 0.00 0.00 0.00 80 1013.1
20260904060207 20 54 0.0 4.8 0.00 0.00 0.00 80 1013.1
20260904055706 20 68 0.0 4.8 0.00 0.00 0.00 80 1013.2
20260904055206 20 296 0.0 8.0 0.00 0.00 0.00 80 1013.3
20260904054706 20 354 1.6 4.8 0.00 0.00 0.00 80 1013.3
20260904054205 20 73 0.0 1.6 0.00 0.00 0.00 80 1013.3
20260904053705 20 312 0.0 6.4 0.00 0.00 0.00 80 1013.4
20260904053205 20 19 0.0 0.0 0.00 0.00 0.00 80 1013.4
20260904052705 20 19 0.0 3.2 0.00 0.00 0.00 80 1013.4
20260904052204 20 45 0.0 3.2 0.00 0.00 0.00 80 1013.3
20260904051704 20 88 0.0 4.8 0.00 0.00 0.00 80 1013.3
20260904051204 20 46 0.0 4.8 0.00 0.00 0.00 80 1013.4
20260904050703 20 345 0.0 4.8 0.00 0.00 0.00 80 1013.4
20260904050203 20 343 0.0 1.6 0.00 0.00 0.00 80 1013.4
20260904045703 19 32 0.0 6.4 0.00 0.00 0.00 80 1013.3
20260904045203 19 345 3.2 3.2 0.00 0.00 0.00 80 1013.3
20260904044702 20 12 0.0 4.8 0.00 0.00 0.00 80 1013.2
20260904044202 20 23 0.0 4.8 0.00 0.00 0.00 80 1013.4
20260904043702 20 46 0.0 6.4 0.00 0.00 0.00 80 1013.3
20260904043202 20 66 0.0 6.4 0.00 0.00 0.00 80 1013.4
20260904042701 20 358 0.0 6.4 0.00 0.00 0.00 80 1013.4
20260904042201 20 326 0.0 3.2 0.00 0.00 0.00 79 1013.5
20260904041701 20 351 0.0 4.8 0.00 0.00 0.00 79 1013.5
20260904041200 20 345 0.0 6.4 0.00 0.00 0.00 79 1013.5
20260904040700 20 305 0.0 4.8 0.00 0.00 0.00 78 1013.6
20260904040200 20 104 0.0 0.0 0.00 0.00 0.00 78 1013.6
20260904035659 20 104 0.0 4.8 0.00 0.00 0.00 78 1013.6
20260904035159 20 59 0.0 6.4 0.00 0.00 0.00 78 1013.7
20260904034659 20 323 4.8 4.8 0.00 0.00 0.00 78 1013.8
20260904034159 20 12 1.6 9.7 0.00 0.00 0.00 78 1013.7
20260904033658 20 30 0.0 9.7 0.00 0.00 0.00 78 1013.8
20260904033158 20 222 0.0 6.4 0.00 0.00 0.00 78 1013.9
20260904032658 20 345 0.0 3.2 0.00 0.00 0.00 77 1013.8
20260904032158 20 199 1.6 4.8 0.00 0.00 0.00 77 1013.9
20260904031657 20 343 3.2 6.4 0.00 0.00 0.00 77 1013.9
20260904031157 20 99 1.6 4.8 0.00 0.00 0.00 77 1013.9
20260904030657 20 329 3.2 9.7 0.00 0.00 0.00 78 1014.0
20260904030156 20 15 0.0 6.4 0.00 0.00 0.00 76 1014.1
20260904025656 20 316 0.0 0.0 0.00 0.00 0.00 76 1014.1
20260904025156 20 316 0.0 0.0 0.00 0.00 0.00 76 1014.2
20260904024656 20 316 0.0 0.0 0.00 0.00 0.00 76 1014.2
20260904024155 20 316 0.0 0.0 0.00 0.00 0.00 76 1014.2
20260904023655 20 316 0.0 0.0 0.00 0.00 0.00 76 1014.2
20260904023155 20 316 0.0 0.0 0.00 0.00 0.00 76 1014.2
20260904022654 20 316 0.0 0.0 0.00 0.00 0.00 76 1014.2
20260904022154 20 316 0.0 0.0 0.00 0.00 0.00 75 1014.2
20260904021654 20 316 0.0 0.0 0.00 0.00 0.00 75 1014.2
20260904021153 20 316 0.0 0.0 0.00 0.00 0.00 75 1014.1
20260904020653 20 316 0.0 3.2 0.00 0.00 0.00 75 1014.1
20260904020153 20 5 0.0 0.0 0.00 0.00 0.00 75 1014.0
20260904015653 20 5 0.0 4.8 0.00 0.00 0.00 75 1014.1
20260904015152 20 313 1.6 4.8 0.00 0.00 0.00 75 1014.2
20260904014652 20 50 1.6 4.8 0.00 0.00 0.00 75 1014.3
20260904014152 20 320 0.0 4.8 0.00 0.00 0.00 74 1014.4
20260904013652 20 19 0.0 0.0 0.00 0.00 0.00 74 1014.3
20260904013151 20 19 0.0 0.0 0.00 0.00 0.00 74 1014.4
20260904012651 20 19 0.0 0.0 0.00 0.00 0.00 73 1014.5
20260904012151 20 19 0.0 0.0 0.00 0.00 0.00 73 1014.5
20260904011650 20 19 0.0 0.0 0.00 0.00 0.00 73 1014.6
20260904011150 20 19 0.0 0.0 0.00 0.00 0.00 73 1014.8
20260904010650 20 19 0.0 0.0 0.00 0.00 0.00 72 1014.7
20260904010150 20 19 0.0 0.0 0.00 0.00 0.00 72 1014.8
20260904005649 21 19 0.0 0.0 0.00 0.00 0.00 72 1014.9
20260904005149 21 19 0.0 0.0 0.00 0.00 0.00 71 1014.8
20260904004649 21 19 0.0 0.0 0.00 0.00 0.00 71 1014.8
20260904004148 21 19 0.0 0.0 0.00 0.00 0.00 71 1014.8
20260904003648 21 19 0.0 0.0 0.00 0.00 0.00 71 1014.8
20260904003148 21 19 0.0 0.0 0.00 0.00 0.00 70 1014.7
20260904002648 21 19 0.0 0.0 0.00 0.00 0.00 70 1014.7
20260904002147 21 19 0.0 0.0 0.00 0.00 0.00 70 1014.7
20260904001647 21 19 0.0 0.0 0.00 0.00 0.00 70 1014.7
20260904001147 21 19 0.0 0.0 0.00 0.00 0.00 70 1014.9
20260904000646 21 19 0.0 0.0 0.00 0.00 0.00 70 1015.0
20260904000146 21 19 0.0 0.0 0.00 0.00 0.00 69 1014.9
20260903235646 21 19 0.0 0.0 0.00 0.00 0.00 69 1014.9
20260903235146 21 19 0.0 0.0 0.00 0.00 0.00 69 1014.9
20260903234645 21 19 0.0 0.0 0.00 0.00 0.00 69 1015.0
20260903234145 21 19 0.0 0.0 0.00 0.00 0.00 69 1015.0
20260903233645 22 19 0.0 0.0 0.00 0.00 0.00 68 1015.1
20260903233144 22 19 0.0 0.0 0.00 0.00 0.00 68 1015.1
20260903232644 22 19 0.0 0.0 0.00 0.00 0.00 68 1015.2
20260903232144 22 19 0.0 0.0 0.00 0.00 0.00 68 1015.2
20260903231644 22 19 0.0 0.0 0.00 0.00 0.00 68 1015.2
20260903231143 22 19 0.0 0.0 0.00 0.00 0.00 68 1015.1
20260903230643 22 19 0.0 1.6 0.00 0.00 0.00 68 1015.0
20260903230143 22 45 0.0 6.4 0.00 0.00 0.00 67 1015.2
20260903225642 22 60 0.0 4.8 0.00 0.00 0.00 67 1015.3
20260903225142 22 82 0.0 6.4 0.00 0.00 0.00 67 1015.4
20260903224642 22 26 1.6 8.0 0.00 0.00 0.00 67 1015.4
20260903224142 22 113 1.6 8.0 0.00 0.00 0.00 67 1015.4
20260903223641 22 40 3.2 11.3 0.00 0.00 0.00 67 1015.5
20260903223141 22 14 0.0 6.4 0.00 0.00 0.00 67 1015.4
20260903222641 22 50 0.0 4.8 0.00 0.00 0.00 66 1015.5
20260903222140 22 75 0.0 3.2 0.00 0.00 0.00 66 1015.6
20260903221640 22 73 0.0 6.4 0.00 0.00 0.00 66 1015.6
20260903221140 22 45 1.6 8.0 0.00 0.00 0.00 66 1015.6
20260903220640 22 56 0.0 4.8 0.00 0.00 0.00 66 1015.7
20260903220139 22 37 0.0 8.0 0.00 0.00 0.00 66 1015.6
20260903215639 22 57 0.0 3.2 0.00 0.00 0.00 66 1015.6
20260903215139 22 77 0.0 3.2 0.00 0.00 0.00 66 1015.6
20260903214638 22 30 0.0 3.2 0.00 0.00 0.00 66 1015.7
20260903214138 22 25 1.6 1.6 0.00 0.00 0.00 66 1015.7
20260903213638 22 119 0.0 4.8 0.00 0.00 0.00 65 1015.8
20260903213138 22 53 0.0 3.2 0.00 0.00 0.00 65 1015.6
20260903212637 23 40 0.0 3.2 0.00 0.00 0.00 65 1015.5
20260903212137 22 61 0.0 0.0 0.00 0.00 0.00 65 1015.4
20260903211637 22 61 0.0 1.6 0.00 0.00 0.00 65 1015.4
20260903211137 22 22 0.0 3.2 0.00 0.00 0.00 65 1015.4
20260903210636 22 46 0.0 4.8 0.00 0.00 0.00 65 1015.6
20260903210136 22 26 0.0 3.2 0.00 0.00 0.00 64 1015.7
20260903205636 23 99 0.0 3.2 0.00 0.00 0.00 64 1015.8
20260903205135 23 59 3.2 3.2 0.00 0.00 0.00 64 1015.7
20260903204635 22 64 1.6 4.8 0.00 0.00 0.00 64 1015.7
20260903204135 23 9 0.0 6.4 0.00 0.00 0.00 64 1015.7
20260903203635 23 60 6.4 6.4 0.00 0.00 0.00 64 1015.7
20260903203134 23 274 0.0 0.0 0.00 0.00 0.00 63 1015.6
20260903202634 23 274 0.0 3.2 0.00 0.00 0.00 63 1015.5
20260903202134 23 95 0.0 1.6 0.00 0.00 0.00 63 1015.6
20260903201633 23 45 1.6 6.4 0.00 0.00 0.00 63 1015.6
20260903201133 23 59 3.2 4.8 0.00 0.00 0.00 63 1015.5
20260903200633 22 4 0.0 6.4 0.00 0.00 0.00 63 1015.4
20260903200133 23 9 0.0 6.4 0.00 0.00 0.00 63 1015.4
20260903195632 23 340 0.0 6.4 0.00 0.00 0.00 63 1015.7
20260903195132 23 336 0.0 4.8 0.00 0.00 0.00 63 1015.7
20260903194632 23 329 0.0 3.2 0.00 0.00 0.00 62 1015.7
20260903194131 23 1 0.0 4.8 0.00 0.00 0.00 62 1015.7
20260903193631 23 68 0.0 0.0 0.00 0.00 0.00 62 1015.7
20260903193131 23 68 0.0 0.0 0.00 0.00 0.00 62 1015.7
20260903192631 23 68 0.0 0.0 0.00 0.00 0.00 62 1015.8
20260903192131 23 68 0.0 0.0 0.00 0.00 0.00 61 1015.8
20260903191630 23 75 0.0 3.2 0.00 0.00 0.00 61 1015.7
20260903191130 23 77 0.0 3.2 0.00 0.00 0.00 61 1015.7
20260903190629 23 108 3.2 3.2 0.00 0.00 0.00 61 1015.6
20260903190129 23 352 0.0 3.2 0.00 0.00 0.00 60 1015.6
20260903185629 23 352 0.0 0.0 0.00 0.00 0.00 60 1015.5
20260903185129 23 352 0.0 1.6 0.00 0.00 0.00 60 1015.5
20260903184628 23 15 1.6 3.2 0.00 0.00 0.00 60 1015.6
20260903184128 23 64 0.0 0.0 0.00 0.00 0.00 60 1015.6
20260903183628 23 64 0.0 3.2 0.00 0.00 0.00 60 1015.4
20260903183127 23 19 0.0 6.4 0.00 0.00 0.00 60 1015.6
20260903182627 23 4 0.0 6.4 0.00 0.00 0.00 60 1015.6